{"data":{"norad_id":56117,"intl_designator":"2023-046AA","name":"STARLINK-6107","alt_names":[],"object_type":"PAYLOAD","status":"ACTIVE","operator":null,"country":"US","launch_date":"2023-03-29","launch_site_code":"AFETR","launch_vehicle":null,"mission":null,"orbit_class":"UNKNOWN","rcs_meters":null,"size_class":null,"mass_kg":null,"dimensions":null,"purposes":["comms"],"wikipedia_slug":null,"has_3d_model":false,"image_url":null,"decayed_at":null,"tle_current":{"epoch":"2026-09-20T23:10:58.355616Z","epoch_age_seconds":68824,"freshness":"FRESH","line1":"1 56117U 23046AA  26263.96595319 -.00000022  00000+0  87376-5 0  9991","line2":"2 56117  43.0019 124.3052 0001324 264.3799  95.6902 15.27577076192062","mean_motion":15.27577076,"eccentricity":0.0001324,"inclination_deg":43.0019,"raan_deg":124.3052,"arg_perigee_deg":264.3799,"mean_anomaly_deg":95.6902,"bstar":8.7376e-6,"rev_number":19206,"period_min":94.266929153629,"perigee_km":482.14942936318,"apogee_km":483.96627375987,"semimajor_km":6861.1948515615,"source":"CELESTRAK","updated_at":"2026-09-21T09:00:33.385053Z"}}}